H1 CPF 2 NER 2023 3 23 9 082 01 glonass143 H2 2007501 9143 46805 2023 3 23 0 0 0 2023 3 26 23 45 0 900 1 1 0 0 0 1 H9 10 0 60026 0.00000 0 -9300091.616 5841163.598 23028683.197 10 0 60026 900.00000 0 -11125624.641 3694848.906 22659230.039 10 0 60026 1800.00000 0 -13052383.329 1739232.497 21849950.229 10 0 60026 2700.00000 0 -15023526.128 13474.313 20616480.257 10 0 60026 3600.00000 0 -16977115.119 -1454539.387 18982691.609 10 0 60026 4500.00000 0 -18848596.427 -2649126.175 16980235.097 10 0 60026 5400.00000 0 -20573410.529 -3567219.669 14647933.861 10 0 60026 6300.00000 0 -22089623.861 -4218247.168 12031035.954 10 0 60026 7200.00000 0 -23340471.691 -4623478.396 9180340.294 10 0 60026 8100.00000 0 -24276705.558 -4814873.294 6151212.433 10 0 60026 9000.00000 0 -24858646.354 -4833477.991 3002508.976 10 0 60026 9900.00000 0 -25057856.154 -4727437.278 -204568.357 10 0 60026 10800.00000 0 -24858357.800 -4549708.335 -3407666.412 10 0 60026 11700.00000 0 -24257350.192 -4355573.310 -6544498.265 10 0 60026 12600.00000 0 -23265388.509 -4200056.976 -9554060.382 10 0 60026 13500.00000 0 -21906021.288 -4135359.873 -12377824.828 10 0 60026 14400.00000 0 -20214899.257 -4208416.617 -14960882.612 10 0 60026 15300.00000 0 -18238393.193 -4458683.750 -17253015.295 10 0 60026 16200.00000 0 -16031778.797 -4916251.599 -19209673.655 10 0 60026 17100.00000 0 -13657064.659 -5600360.796 -20792844.266 10 0 60026 18000.00000 0 -11180554.325 -6518386.780 -21971787.219 10 0 60026 18900.00000 0 -8670244.318 -7665335.786 -22723630.981 10 0 60026 19800.00000 0 -6193166.538 -9023874.156 -23033813.267 10 0 60026 20700.00000 0 -3812785.581 -10564890.308 -22896359.842 10 0 60026 21600.00000 0 -1586558.801 -12248566.341 -22313996.322 10 0 60026 22500.00000 0 436240.042 -14025914.884 -21298091.180 10 0 60026 23400.00000 0 2216343.892 -15840717.282 -19868431.328 10 0 60026 24300.00000 0 3725887.546 -17631782.408 -18052834.768 10 0 60026 25200.00000 0 4949318.041 -19335431.933 -15886607.829 10 0 60026 26100.00000 0 5883783.720 -20888108.296 -13411857.485 10 0 60026 27000.00000 0 6538987.332 -22228996.376 -10676672.016 10 0 60026 27900.00000 0 6936510.842 -23302549.198 -7734185.796 10 0 60026 28800.00000 0 7108641.823 -24060811.864 -4641546.438 10 0 60026 29700.00000 0 7096752.160 -24465446.297 -1458804.344 10 0 60026 30600.00000 0 6949298.592 -24489371.844 1752253.601 10 0 60026 31500.00000 0 6719530.432 -24117952.897 4929303.342 10 0 60026 32400.00000 0 6463002.052 -23349683.669 8010692.497 10 0 60026 33300.00000 0 6234995.832 -22196341.348 10936635.131 10 0 60026 34200.00000 0 6087964.818 -20682601.141 13650369.195 10 0 60026 35100.00000 0 6069103.431 -18845129.188 16099254.298 10 0 60026 36000.00000 0 6218148.919 -16731191.033 18235788.799 10 0 60026 36900.00000 0 6565506.508 -14396833.444 20018526.880 10 0 60026 37800.00000 0 7130777.431 -11904714.950 21412878.394 10 0 60026 38700.00000 0 7921752.225 -9321674.789 22391776.559 10 0 60026 39600.00000 0 8933912.129 -6716140.727 22936201.090 10 0 60026 40500.00000 0 10150460.332 -4155482.579 23035547.068 10 0 60026 41400.00000 0 11542882.786 -1703420.454 22687832.639 10 0 60026 42300.00000 0 13072016.234 582405.572 21899741.460 10 0 60026 43200.00000 0 14689580.031 2652604.328 20686498.817 10 0 60026 44100.00000 0 16340108.895 4467851.707 19071583.227 10 0 60026 45000.00000 0 17963206.833 6000283.176 17086278.426 10 0 60026 45900.00000 0 19496028.788 7234403.348 14769073.532 10 0 60026 46800.00000 0 20875886.666 8167475.253 12164922.211 10 0 60026 47700.00000 0 22042870.717 8809373.611 9324374.453 10 0 60026 48600.00000 0 22942376.189 9181908.855 6302597.302 10 0 60026 49500.00000 0 23527428.664 9317650.939 3158303.263 10 0 60026 50400.00000 0 23760709.640 9258303.173 -47392.711 10 0 60026 51300.00000 0 23616196.256 9052695.447 -3252165.121 10 0 60026 52200.00000 0 23080345.224 8754482.514 -6393694.963 10 0 60026 53100.00000 0 22152770.176 8419645.626 -9410887.480 10 0 60026 54000.00000 0 20846383.149 8103904.202 -12245066.146 10 0 60026 54900.00000 0 19186993.519 7860148.080 -14841118.952 10 0 60026 55800.00000 0 17212380.788 7735999.919 -17148574.035 10 0 60026 56700.00000 0 14970879.754 7771611.692 -19122583.379 10 0 60026 57600.00000 0 12519537.127 7997789.108 -20724795.319 10 0 60026 58500.00000 0 9921916.582 8434523.719 -21924098.950 10 0 60026 59400.00000 0 7245643.774 9089995.129 -22697226.279 10 0 60026 60300.00000 0 4559793.498 9960085.690 -23029200.859 10 0 60026 61200.00000 0 1932227.538 11028428.469 -22913624.664 10 0 60026 62100.00000 0 -573006.487 12266986.744 -22352798.121 10 0 60026 63000.00000 0 -2898107.767 13637141.011 -21357671.357 10 0 60026 63900.00000 0 -4993686.103 15091238.135 -19947627.872 10 0 60026 64800.00000 0 -6820567.915 16574537.950 -18150105.011 10 0 60026 65700.00000 0 -8351170.517 18027475.893 -16000058.567 10 0 60026 66600.00000 0 -9570388.719 19388146.946 -13539281.903 10 0 60026 67500.00000 0 -10475958.261 20594906.808 -10815592.682 10 0 60026 68400.00000 0 -11078282.408 21588981.196 -7881902.909 10 0 60026 69300.00000 0 -11399730.503 22316973.655 -4795190.346 10 0 60026 70200.00000 0 -11473439.406 22733166.507 -1615391.340 10 0 60026 71100.00000 0 -11341669.574 22801518.110 1595763.351 10 0 60026 72000.00000 0 -11053786.179 22497272.326 4775946.845 10 0 60026 72900.00000 0 -10663951.369 21808112.409 7863445.128 10 0 60026 73800.00000 0 -10228625.778 20734810.582 10798353.106 10 0 60026 74700.00000 0 -9803985.258 19291345.811 13523734.432 10 0 60026 75600.00000 0 -9443362.189 17504484.446 15986722.715 10 0 60026 76500.00000 0 -9194819.443 15412840.869 18139543.015 10 0 60026 77400.00000 0 -9098959.373 13065456.856 19940434.211 10 0 60026 78300.00000 0 -9187060.124 10519958.253 21354454.911 10 0 60026 79200.00000 0 -9479617.798 7840364.953 22354157.869 10 0 60026 80100.00000 0 -9985355.974 5094644.403 22920120.384 10 0 60026 81000.00000 0 -10700744.566 2352109.299 23041320.842 10 0 60026 81900.00000 0 -11610048.834 -319233.545 22715354.346 10 0 60026 82800.00000 0 -12685907.275 -2855274.127 21948483.251 10 0 60026 83700.00000 0 -13890415.134 -5198223.457 20755521.340 10 0 60026 84600.00000 0 -15176669.153 -7298771.290 19159553.359 10 0 60026 85500.00000 0 -16490709.791 -9117888.478 17191494.617 10 0 60027 0.00000 0 -17773780.232 -10628199.514 14889498.579 10 0 60027 900.00000 0 -18964808.712 -11814869.391 12298221.769 10 0 60027 1800.00000 0 -20003008.530 -12675966.329 9467962.687 10 0 60027 2700.00000 0 -20830488.748 -13222288.373 6453686.776 10 0 60027 3600.00000 0 -21394763.676 -13476659.639 3313959.097 10 0 60027 4500.00000 0 -21651055.506 -13472727.264 109804.312 10 0 60027 5400.00000 0 -21564292.098 -13253310.322 -3096483.342 10 0 60027 6300.00000 0 -21110714.685 -12868371.165 -6242556.420 10 0 60027 7200.00000 0 -20279026.654 -12372695.792 -9267232.539 10 0 60027 8100.00000 0 -19071033.955 -11823382.244 -12111690.075 10 0 60027 9000.00000 0 -17501749.231 -11277244.149 -14720617.300 10 0 60027 9900.00000 0 -15598954.474 -10788240.121 -17043291.948 10 0 60027 10800.00000 0 -13402239.933 -10405038.437 -19034569.842 10 0 60027 11700.00000 0 -10961559.018 -10168820.460 -20655763.222 10 0 60027 12600.00000 0 -8335359.317 -10111416.021 -21875391.730 10 0 60027 13500.00000 0 -5588367.427 -10253849.665 -22669791.803 10 0 60027 14400.00000 0 -2789119.646 -10605359.154 -23023573.040 10 0 60027 15300.00000 0 -7340.997 -11162927.624 -22929913.163 10 0 60027 16200.00000 0 2688718.867 -11911349.052 -22390686.332 10 0 60027 17100.00000 0 5234882.725 -12823824.265 -21416422.700 10 0 60027 18000.00000 0 7573468.638 -13863062.444 -20026100.275 10 0 60027 18900.00000 0 9655438.727 -14982841.820 -18246773.267 10 0 60027 19800.00000 0 11442185.620 -16129964.038 -16113044.141 10 0 60027 20700.00000 0 12906883.324 -17246520.077 -13666389.584 10 0 60027 21600.00000 0 14035347.526 -18272372.455 -10954353.369 10 0 60027 22500.00000 0 14826370.814 -19147749.346 -8029621.692 10 0 60027 23400.00000 0 15291520.215 -19815841.359 -4948998.952 10 0 60027 24300.00000 0 15454406.990 -20225291.571 -1772303.897 10 0 60027 25200.00000 0 15349460.716 -20332473.836 1438792.287 10 0 60027 26100.00000 0 15020260.442 -20103463.184 4621963.178 10 0 60027 27000.00000 0 14517494.270 -19515615.132 7715436.140 10 0 60027 27900.00000 0 13896634.172 -18558687.117 10659189.591 10 0 60027 28800.00000 0 13215424.694 -17235454.511 13396115.163 10 0 60027 29700.00000 0 12531291.811 -15561794.861 15873122.291 10 0 60027 30600.00000 0 11898781.278 -13566236.207 18042164.112 10 0 60027 31500.00000 0 11367134.413 -11288987.649 19861165.118 10 0 60027 32400.00000 0 10978103.225 -8780491.825 21294833.136 10 0 60027 33300.00000 0 10764096.632 -6099558.622 22315340.505 10 0 60027 34200.00000 0 10746735.580 -3311156.775 22902861.759 10 0 60027 35100.00000 0 10935877.735 -483953.988 23045957.874 10 0 60027 36000.00000 0 11329152.861 2312293.476 22741799.891 10 0 60027 36900.00000 0 11912028.754 5009394.529 21996227.554 10 0 60027 37800.00000 0 12658405.499 7543311.309 20823641.610 10 0 60027 38700.00000 0 13531713.830 9856575.092 19246731.298 10 0 60027 39600.00000 0 14486472.221 11900430.525 17296041.602 10 0 60027 40500.00000 0 15470238.065 13636619.674 15009387.837 10 0 60027 41400.00000 0 16425871.507 15038732.141 12431128.030 10 0 60027 42300.00000 0 17294017.074 16093065.311 9611306.491 10 0 60027 43200.00000 0 18015698.713 16798959.173 6604684.630 10 0 60027 44100.00000 0 18534918.608 17168592.124 3469677.531 10 0 60027 45000.00000 0 18801149.660 17226246.759 267216.986 10 0 60027 45900.00000 0 18771615.615 17007077.160 -2940436.614 10 0 60027 46800.00000 0 18413261.590 16555430.285 -6090909.890 10 0 60027 47700.00000 0 17704330.682 15922793.083 -9122935.204 10 0 60027 48600.00000 0 16635478.987 15165452.852 -11977547.990 10 0 60027 49500.00000 0 15210380.858 14341970.578 -14599238.707 10 0 60027 50400.00000 0 13445797.903 13510574.768 -16937036.326 10 0 60027 51300.00000 0 11371107.875 12726586.614 -18945501.886 10 0 60027 52200.00000 0 9027312.424 12039985.684 -20585612.659 10 0 60027 53100.00000 0 6465564.629 11493219.205 -21825519.764 10 0 60027 54000.00000 0 3745277.281 11119347.421 -22641164.796 10 0 60027 54900.00000 0 931890.327 10940603.085 -23016743.926 10 0 60027 55800.00000 0 -1905609.974 10967425.534 -22945010.919 10 0 60027 56700.00000 0 -4697317.479 11198009.645 -22427413.680 10 0 60027 57600.00000 0 -7375069.593 11618388.290 -21474062.070 10 0 60027 58500.00000 0 -9875037.626 12203044.462 -20103527.911 10 0 60027 59400.00000 0 -12140137.242 12916026.972 -18342481.204 10 0 60027 60300.00000 0 -14122159.649 13712522.521 -16225169.643 10 0 60027 61200.00000 0 -15783535.810 14540817.764 -13792751.483 10 0 60027 62100.00000 0 -17098661.302 15344568.557 -11092494.601 10 0 60027 63000.00000 0 -18054727.718 16065280.649 -8176857.202 10 0 60027 63900.00000 0 -18652027.109 16644897.093 -5102468.015 10 0 60027 64800.00000 0 -18903718.026 17028383.082 -1929025.832 10 0 60027 65700.00000 0 -18835064.245 17166199.021 1281860.146 10 0 60027 66600.00000 0 -18482179.329 17016557.224 4467866.375 10 0 60027 67500.00000 0 -17890330.928 16547366.813 7567164.039 10 0 60027 68400.00000 0 -17111877.048 15737784.454 10519617.512 10 0 60027 69300.00000 0 -16203921.875 14579305.193 13267948.823 10 0 60027 70200.00000 0 -15225790.313 13076346.960 15758845.626 10 0 60027 71100.00000 0 -14236427.726 11246303.496 17943991.437 10 0 60027 72000.00000 0 -13291834.302 9119062.661 19780998.539 10 0 60027 72900.00000 0 -12442641.715 6736009.290 21234225.984 10 0 60027 73800.00000 0 -11731933.566 4148553.076 22275467.469 10 0 60027 74700.00000 0 -11193400.810 1416241.638 22884496.262 10 0 60027 75600.00000 0 -10849909.201 -1395464.068 23049457.121 10 0 60027 76500.00000 0 -10712538.665 -4217660.870 22767097.846 10 0 60027 77400.00000 0 -10780134.794 -6980619.726 22042836.006 10 0 60027 78300.00000 0 -11039391.400 -9616439.879 20890659.317 10 0 60027 79200.00000 0 -11465460.938 -12061631.746 19332861.060 10 0 60027 80100.00000 0 -12023067.573 -14259522.076 17399614.996 10 0 60027 81000.00000 0 -12668076.566 -16162382.053 15128397.152 10 0 60027 81900.00000 0 -13349454.397 -17733190.252 12563264.861 10 0 60027 82800.00000 0 -14011537.374 -18946957.229 9754006.267 10 0 60027 83700.00000 0 -14596513.200 -19791556.644 6755176.253 10 0 60027 84600.00000 0 -15047010.604 -20268028.370 3625037.166 10 0 60027 85500.00000 0 -15308687.235 -20390341.109 424424.944 10 0 60028 0.00000 0 -15332705.729 -20184624.914 -2784436.729 10 0 60028 900.00000 0 -15077992.330 -19687906.210 -5939152.406 10 0 60028 1800.00000 0 -14513181.472 -18946399.620 -8978372.261 10 0 60028 2700.00000 0 -13618163.028 -18013428.935 -11842992.184 10 0 60028 3600.00000 0 -12385165.577 -16947065.972 -14477308.177 10 0 60028 4500.00000 0 -10819328.901 -15807587.609 -16830103.670 10 0 60028 5400.00000 0 -8938740.478 -14654858.977 -18855647.905 10 0 60028 6300.00000 0 -6773933.432 -13545753.629 -20514585.831 10 0 60028 7200.00000 0 -4366866.148 -12531719.721 -21774702.229 10 0 60028 8100.00000 0 -1769425.433 -11656594.724 -22611545.511 10 0 60028 9000.00000 0 958484.931 -10954760.458 -23008899.497 10 0 60028 9900.00000 0 3751191.146 -10449715.656 -22959094.484 10 0 60028 10800.00000 0 6539738.939 -10153125.469 -22463152.045 10 0 60028 11700.00000 0 9254522.728 -10064387.230 -21530761.143 10 0 60028 12600.00000 0 11827945.699 -10170729.998 -20180086.323 10 0 60028 13500.00000 0 14197000.895 -10447842.979 -18437411.838 10 0 60028 14400.00000 0 16305666.732 -10861005.753 -16336628.640 10 0 60028 15300.00000 0 18107018.002 -11366672.151 -13918574.153 10 0 60028 16200.00000 0 19564965.330 -11914440.555 -11230237.553 10 0 60028 17100.00000 0 20655551.472 -12449327.158 -8323845.869 10 0 60028 18000.00000 0 21367751.303 -12914245.932 -5255848.654 10 0 60028 18900.00000 0 21703743.131 -13252590.274 -2085820.986 10 0 60028 19800.00000 0 21678641.034 -13410807.084 1124693.777 10 0 60028 20700.00000 0 21319700.542 -13340854.184 4313378.819 10 0 60028 21600.00000 0 20665032.011 -13002437.057 7418352.839 10 0 60028 22500.00000 0 19761876.641 -12364930.080 10379369.574 10 0 60028 23400.00000 0 18664518.302 -11408900.804 13138984.475 10 0 60028 24300.00000 0 17431919.476 -10127172.519 15643665.975 10 0 60028 25200.00000 0 16125180.893 -8525379.708 17844830.044 10 0 60028 26100.00000 0 14804931.624 -6621992.226 19699778.309 10 0 60028 27000.00000 0 13528758.986 -4447806.162 21172522.108 10 0 60028 27900.00000 0 12348785.679 -2044921.470 22234477.074 10 0 60028 28800.00000 0 11309495.272 534752.280 22865015.334 10 0 60028 29700.00000 0 10445896.579 3231401.179 23051865.106 10 0 60028 30600.00000 0 9782103.309 5979545.533 22791350.223 10 0 60028 31500.00000 0 9330388.065 8710520.007 22088464.974 10 0 60028 32400.00000 0 9090750.033 11355093.702 20956782.587 10 0 60028 33300.00000 0 9051014.347 13846122.489 19418198.629 10 0 60028 34200.00000 0 9187458.982 16121124.300 17502513.596 10 0 60028 35100.00000 0 9465942.933 18124670.989 15246861.967 10 0 60028 36000.00000 0 9843488.415 19810497.613 12694997.919 10 0 60028 36900.00000 0 10270250.530 21143241.431 9896450.809 10 0 60028 37800.00000 0 10691791.372 22099738.048 6905566.233 10 0 60028 38700.00000 0 11051562.334 22669820.528 3780450.950 10 0 60028 39600.00000 0 11293489.334 22856587.972 581842.168 10 0 60028 40500.00000 0 11364550.924 22676132.404 -2628076.562 10 0 60028 41400.00000 0 11217239.359 22156735.674 -5786889.292 10 0 60028 42300.00000 0 10811799.407 21337570.574 -8833167.136 10 0 60028 43200.00000 0 10118149.034 20266961.369 -11707668.727 10 0 60028 44100.00000 0 9117399.542 19000277.677 -14354497.612 10 0 60028 45000.00000 0 7802909.729 17597551.075 -16722193.374 10 0 60028 45900.00000 0 6180828.433 16120915.453 -18764734.863 10 0 60028 46800.00000 0 4270101.519 14631979.354 -20442435.846 10 0 60028 47700.00000 0 2101941.969 13189241.164 -21722715.672 10 0 60028 48600.00000 0 -281215.633 11845655.888 -22580730.262 10 0 60028 49500.00000 0 -2827233.321 10646455.496 -22999851.556 10 0 60028 50400.00000 0 -5476198.035 9627313.944 -22971986.612 10 0 60028 51300.00000 0 -8162680.255 8812933.152 -22497730.597 10 0 60028 52200.00000 0 -10818229.596 8216108.429 -21586351.173 10 0 60028 53100.00000 0 -13374004.090 7837311.587 -20255604.826 10 0 60028 54000.00000 0 -15763424.393 7664808.215 -18531388.890 10 0 60028 54900.00000 0 -17924743.101 7675303.180 -16447236.058 10 0 60028 55800.00000 0 -19803422.823 7835086.241 -14043661.111 10 0 60028 56700.00000 0 -21354224.578 8101628.707 -11367372.482 10 0 60028 57600.00000 0 -22542920.131 8425563.101 -8470363.833 10 0 60028 58500.00000 0 -23347557.469 8752961.666 -5408903.258 10 0 60028 59400.00000 0 -23759227.317 9027817.008 -2242439.805 10 0 60028 60300.00000 0 -23782299.428 9194619.580 967551.372 10 0 60028 61200.00000 0 -23434119.593 9200922.699 4158762.565 10 0 60028 62100.00000 0 -22744180.925 8999786.295 7269262.388 10 0 60028 63000.00000 0 -21752804.950 8551995.763 10238696.370 10 0 60028 63900.00000 0 -20509388.528 7827961.823 13009455.804 10 0 60028 64800.00000 0 -19070290.697 6809220.739 15527792.293 10 0 60028 65700.00000 0 -17496448.361 5489471.097 17744856.545 10 0 60028 66600.00000 0 -15850820.873 3875102.757 19617641.673 10 0 60028 67500.00000 0 -14195770.446 1985194.813 21109813.214 10 0 60028 68400.00000 0 -12590487.657 -149018.518 22192410.372 10 0 60028 69300.00000 0 -11088569.249 -2485193.067 22844405.450 10 0 60028 70200.00000 0 -9735848.862 -4971388.786 23053111.101 10 0 60028 71100.00000 0 -8568570.672 -7547991.186 22814427.809 10 0 60028 72000.00000 0 -7611981.631 -10149961.643 22132926.840 10 0 60028 72900.00000 0 -6879400.596 -12709324.444 21021766.827 10 0 60028 73800.00000 0 -6371802.817 -15157788.408 19502445.153 10 0 60028 74700.00000 0 -6077936.853 -17429395.061 17604388.231 10 0 60028 75600.00000 0 -5974968.801 -19463083.916 15364387.818 10 0 60028 76500.00000 0 -6029626.592 -21205068.453 12825893.438 10 0 60028 77400.00000 0 -6199796.103 -22610923.876 10038173.863 10 0 60028 78300.00000 0 -6436501.613 -23647299.396 7055363.362 10 0 60028 79200.00000 0 -6686186.749 -24293183.267 3935410.843 10 0 60028 80100.00000 0 -6893199.047 -24540667.293 738952.336 10 0 60028 81000.00000 0 -7002372.401 -24395178.587 -2471871.052 10 0 60028 81900.00000 0 -6961597.252 -23875168.742 -5634626.200 10 0 60028 82800.00000 0 -6724268.677 -23011273.568 -8687807.745 10 0 60028 83700.00000 0 -6251507.636 -21844979.008 -11572040.045 10 0 60028 84600.00000 0 -5514060.183 -20426849.762 -14231237.220 10 0 60028 85500.00000 0 -4493793.150 -18814395.651 -16613698.024 10 0 60029 0.00000 0 -3184722.107 -17069666.165 -18673113.660 10 0 60029 900.00000 0 -1593526.352 -15256673.749 -20369469.793 10 0 60029 1800.00000 0 260469.948 -13438756.770 -21669822.549 10 0 60029 2700.00000 0 2345853.033 -11675989.781 -22548937.384 10 0 60029 3600.00000 0 4620187.186 -10022751.808 -22989775.954 10 0 60029 4500.00000 0 7031551.539 -8525553.219 -22983823.208 10 0 60029 5400.00000 0 9520482.527 -7221211.634 -22531248.585 10 0 60029 6300.00000 0 12022241.673 -6135452.307 -21640898.668 10 0 60029 7200.00000 0 14469314.785 -5281990.518 -20330121.664 10 0 60029 8100.00000 0 16794039.046 -4662133.179 -18624427.335 10 0 60029 9000.00000 0 18931249.100 -4264915.082 -16556988.983 10 0 60029 9900.00000 0 20820832.345 -4067762.813 -14167997.138 10 0 60029 10800.00000 0 22410087.363 -4037657.223 -11503877.371 10 0 60029 11700.00000 0 23655787.566 -4132744.431 -8616387.348 10 0 60029 12600.00000 0 24525864.318 -4304326.499 -5561610.617 10 0 60029 13500.00000 0 25000639.678 -4499146.965 -2398866.702 10 0 60029 14400.00000 0 25073557.747 -4661874.010 810441.207 10 0 60029 15300.00000 0 24751384.530 -4737675.750 4004018.406 10 0 60029 16200.00000 0 24053868.569 -4674778.304 7119887.316 10 0 60029 17100.00000 0 23012877.117 -4426898.079 10097588.982 10 0 60029 18000.00000 0 21671044.607 -3955445.117 12879354.016 10 0 60029 18900.00000 0 20079990.445 -3231404.027 15411220.284 10 0 60029 19800.00000 0 18298181.033 -2236812.686 17644075.931 10 0 60029 20700.00000 0 16388525.589 -965775.795 19534607.794 10 0 60029 21600.00000 0 14415806.175 575030.135 21046137.398 10 0 60029 22500.00000 0 12444048.938 2366382.599 22149328.846 10 0 60029 23400.00000 0 10533945.828 4377069.810 22822755.474 10 0 60029 24300.00000 0 8740433.681 6564956.449 23053314.763 10 0 60029 25200.00000 0 7110530.868 8878515.464 22836483.759 10 0 60029 26100.00000 0 5681520.978 11258763.577 22176410.135 10 0 60029 27000.00000 0 4479558.515 13641521.344 21085836.905 10 0 60029 27900.00000 0 3518754.159 15959905.048 19585861.791 10 0 60029 28800.00000 0 2800777.219 18146947.704 17705535.252 10 0 60029 29700.00000 0 2314991.419 20138240.850 15481304.105 10 0 60029 30600.00000 0 2039117.909 21874487.464 12956310.706 10 0 60029 31500.00000 0 1940397.286 23303859.611 10179560.497 10 0 60029 32400.00000 0 1977201.331 24384062.196 7204973.478 10 0 60029 33300.00000 0 2101026.072 25084016.136 4090337.649 10 0 60029 34200.00000 0 2258781.482 25385089.967 896184.738 10 0 60029 35100.00000 0 2395280.301 25281827.765 -2315389.706 10 0 60029 36000.00000 0 2455819.836 24782142.428 -5481938.413 10 0 60029 36900.00000 0 2388746.446 23906965.917 -8541882.383 10 0 60029 37800.00000 0 2147893.039 22689371.132 -11435714.295 10 0 60029 38700.00000 0 1694785.265 21173202.386 -14107161.143 10 0 60029 39600.00000 0 1000521.911 19411272.359 -16504282.838 10 0 60029 40500.00000 0 47248.898 17463201.548 -18580484.941 10 0 60029 41400.00000 0 -1170836.400 15392991.294 -20295425.647 10 0 60029 42300.00000 0 -2646993.872 13266432.389 -21615799.370 10 0 60029 43200.00000 0 -4361984.001 11148457.971 -22515981.949 10 0 60029 44100.00000 0 -6284644.924 9100551.360 -22978525.350 10 0 60029 45000.00000 0 -8372979.803 7178316.904 -22994492.716 10 0 60029 45900.00000 0 -10575709.771 5429314.706 -22563627.747 10 0 60029 46800.00000 0 -12834228.242 3891248.825 -21694355.556 10 0 60029 47700.00000 0 -15084875.587 2590583.539 -20403615.294 10 0 60029 48600.00000 0 -17261439.800 1541644.236 -18716527.965 10 0 60029 49500.00000 0 -19297779.318 746239.115 -16665905.928 10 0 60029 50400.00000 0 -21130458.937 193816.134 -14291613.577 10 0 60029 51300.00000 0 -22701289.137 -137852.873 -11639791.495 10 0 60029 52200.00000 0 -23959663.070 -281490.987 -8761959.040 10 0 60029 53100.00000 0 -24864593.743 -278688.896 -5714012.779 10 0 60029 54000.00000 0 -25386366.474 -177901.154 -2555140.209 10 0 60029 54900.00000 0 -25507737.700 -32151.506 653330.004 10 0 60029 55800.00000 0 -25224630.214 103455.012 3849118.769 10 0 60029 56700.00000 0 -24546296.005 174307.432 6970204.936 10 0 60029 57600.00000 0 -23494940.238 128842.327 9956027.719 10 0 60029 58500.00000 0 -22104822.369 -79032.978 12748659.641 10 0 60029 59400.00000 0 -20420872.318 -487750.153 15293927.365 10 0 60029 60300.00000 0 -18496879.699 -1126215.396 17542458.823 10 0 60029 61200.00000 0 -16393331.810 -2012349.827 19450636.717 10 0 60029 62100.00000 0 -14174990.491 -3152096.765 20981440.374 10 0 60029 63000.00000 0 -11908308.542 -4538938.416 22105160.258 10 0 60029 63900.00000 0 -9658792.858 -6153943.206 22799971.815 10 0 60029 64800.00000 0 -7488423.420 -7966343.029 23052358.020 10 0 60029 65700.00000 0 -5453234.719 -9934617.577 22857372.774 10 0 60029 66600.00000 0 -3601159.493 -12008041.956 22218740.086 10 0 60029 67500.00000 0 -1970223.653 -14128634.415 21148786.941 10 0 60029 68400.00000 0 -587166.780 -16233424.366 19668210.702 10 0 60029 69300.00000 0 533454.986 -18256947.220 17805684.873 10 0 60029 70200.00000 0 1389646.886 -20133862.864 15597310.063 10 0 60029 71100.00000 0 1991819.062 -21801589.053 13085919.936 10 0 60029 72000.00000 0 2362102.769 -23202839.851 10320254.840 10 0 60029 72900.00000 0 2533168.529 -24287962.860 7354018.537 10 0 60029 73800.00000 0 2546596.546 -25016976.929 4244835.972 10 0 60029 74700.00000 0 2450868.729 -25361224.349 1053132.289 10 0 60029 75600.00000 0 2299067.884 -25304567.455 -2159044.910 10 0 60029 76500.00000 0 2146382.205 -24844078.757 -5329236.681 10 0 60029 77400.00000 0 2047521.668 -23990194.944 -8395792.951 10 0 60029 78300.00000 0 2054156.715 -22766327.911 -11299077.334 10 0 60029 79200.00000 0 2212488.800 -21207948.885 -13982632.359 10 0 60029 80100.00000 0 2561056.648 -19361184.079 -16394281.739 10 0 60029 81000.00000 0 3128872.068 -17280980.905 -18487147.799 10 0 60029 81900.00000 0 3933965.025 -15028921.791 -20220564.065 10 0 60029 82800.00000 0 4982400.252 -12670777.348 -21560865.234 10 0 60029 83700.00000 0 6267807.645 -10273901.329 -22482039.439 10 0 60029 84600.00000 0 7771446.950 -7904576.119 -22966230.524 10 0 60029 85500.00000 0 9462804.719 -5625419.349 -23004081.033 99